Main page
METAR-TAF:

METAR-TAF

Airports :

Moundou Airport

Moundou, Chad

latitude: 08-37N, longitude: 016-04E, elevation: 428 m

Current weather observation

The report was made 1 hour and 14 minutes ago, at 13:00 UTC
Calm wind
Temperature 34°C
Humidity 75%
Pressure 1011 hPa
Visibility 10 km or more
Scattered clouds at a height of 4000 ft
Few clouds at a height of 5000 ft, Cumulonimbus.

METAR: FTTD 011300Z 00000KT 9999 SCT040 FEW050CB 34/29 Q1011

Time: 15:14 (14:14 UTC)


TAF: missing

Weather observations and forecasts of more than 4000 airports (METAR and TAF reports).

The available stations are represented by yellow and red dots on the map.

Hover mouse over dot to see the name of the station.

Then click to see weather observations and forecasts.

To change the map : click on the green buttons with a black cross to zoom in, on the green button with a dash to zoom out, or on the green arrows for adjacent maps.


METAR-TAF: